FENGYUN 1C DEB, 37714

Orbit data source: Space-Track

FENGYUN 1C DEB, 37714 is space debris in SSO originally from a launch on Mon, 10 May 1999 UTC launched from the Taiyaun Space Center, China (TSC). Fengyun 1C debris stems from the Chinese weather satellite Fengyun-1C, which was intentionally destroyed by a Chinese anti-satellite missile in 2007. This event dramatically increased the amount of space debris, with thousands of trackable fragments posing hazards to satellites and human spaceflight. The Fengyun 1C debris cloud has become a focal point in discussions about space sustainability and the need for international regulations to prevent the creation of new debris.

Loading next visibility...
Identifier
37714, 1999-025EMF
Orbit
SSO
Country
Flag of CNCN / PRC
Related business
Manufacturer
Unknown
Mission
Spacecraft
Bus & Motor
Unknown
Mass
Unknown
Launch date (UTC)
1999-05-10 (27 years ago)
Launch vehicle
Unknown
Launch site
Taiyaun Space Center, China (TSC)
Object type
Payload
Rocket body
Debris
Shape & HBR
Unknown shape, 0.1 m
Radar Cross Section
Small (<0.1 m²)

Expand to show TLE details & history
Last TLE update: 11 hours ago

TLE from 11 hours ago
0 FENGYUN 1C DEB
1 37714U 99025EMF 26106.28487284  .00002554  00000-0  92468-3 0  9993
2 37714  98.8945 226.2704 0048335  80.1045 280.5590 14.33694488592938
Epoch: 2026-04-16T06:50Z
TLE epoch observation values (Epoch: 2026-04-16T06:50:13.013Z)
Latitude
-0.00002°
Longitude
-80.71843°
Altitude
776.156 km
Speed
7.469 km/s
True Right ascension
15h 05m 04s
True Declination
0° 00' 00"
Sunlit
Object was in full shadow at epoch
Visualization orbit readout
Latitude
Unknown
Longitude
Unknown
Altitude
Unknown
Speed
Unknown
Apparent Right ascension
Unknown
Apparent Declination
Unknown
Sunlit
N/A
Visualization observer readout
Local Sidereal Time
00:51:26
Azimuth
Unknown
Elevation
Unknown
Doppler factor
Unknown
Orbital elements
Apogee altitude
811.14 km
Perigee altitude
741.975 km
Semi-major axis
7,154.694 km
Eccentricity
0.00483
Inclination
98.8945°
RAAN
226.2704°
Arg. of periapsis
80.1045°
True anomaly
280.01391°
Mean anomaly
280.559°
Eccentric anomaly
280.28651°
Mean motion
3.58638 °/min
Orbital period
100.38 mins
BSTAR
0.00092468
Loading maneuver chart data...
Computing Atmospheric mass density...
Loading historical data...
Loading historical data...
Loading historical data...
Loading historical data...
Loading historical data...
Loading historical data...
Loading historical data...

Documentation

Showing up to 5 results
|